Theta_e
288 287 288 288 288 287 286 285 284 285 283 283 282 285 288 285 283 282 287 285 284 288 291 292 293 292 292 292 292 293 294 293 292 292 293 294 295 296 295 297 298 297 297 298 297 297 297 296 296 297 297 296 294 293 294 294 292 293 293 293 293 294 293 293 295 296 293 291 291 290 290 290 290 290 290 290 289 289 288 288 288 288 288 289 288 288 288
288 289 289 289 287 286 287 286 286 287 286 285 285 286 287 287 284 287 288 287 287 290 292 294 295 295 294 295 294 294 293 294 294 293 293 294 295 295 295 296 297 297 297 297 296 297 297 297 298 298 297 297 296 296 295 294 292 293 289 292 293 293 293 294 295 295 292 291 291 290 290 291 290 290 290 289 289 288 288 288 287 287 286 287 287 287 287
287 289 290 289 289 289 287 289 289 290 290 289 288 287 286 285 285 287 288 287 287 293 295 295 297 298 296 294 294 296 297 295 293 292 293 294 295 296 296 295 295 295 295 295 295 296 297 298 298 299 299 298 297 296 295 294 294 293 291 292 292 293 294 295 295 293 291 291 291 290 291 290 289 289 289 289 288 287 287 286 287 286 286 286 286 287 287
284 287 286 286 286 286 285 286 288 288 288 286 288 286 288 286 286 288 286 285 287 293 293 293 295 295 295 295 295 296 297 297 294 292 293 294 296 296 295 295 295 295 295 295 295 296 297 297 298 298 299 299 298 297 296 295 295 292 290 291 292 293 293 293 292 292 292 291 290 291 290 290 289 288 288 288 287 287 286 285 285 285 285 286 287 287 287
283 284 284 283 284 285 283 284 287 289 289 290 290 291 291 291 291 287 285 286 293 294 294 291 293 295 296 296 296 297 297 295 294 292 294 295 295 296 297 296 296 295 296 296 296 296 295 296 297 297 298 297 298 299 298 298 293 289 291 291 292 292 292 292 291 291 290 290 290 290 290 289 288 287 287 287 287 286 285 285 284 284 285 285 286 286 286
281 281 281 284 283 278 280 291 294 292 289 289 288 288 291 293 292 290 292 292 294 294 294 293 294 294 295 296 298 298 296 294 293 293 294 295 294 294 295 296 296 297 297 297 297 295 295 296 296 297 295 296 298 298 298 296 291 291 291 291 291 292 291 290 290 289 289 289 289 289 288 287 287 287 287 287 286 286 285 284 284 284 285 285 286 285 285
282 280 283 281 277 279 290 295 295 295 294 293 291 291 292 292 293 293 293 294 294 296 296 296 296 296 296 297 296 297 295 294 294 293 295 294 294 294 295 296 297 296 296 296 295 295 296 295 293 293 294 294 294 294 295 294 292 291 290 290 290 290 290 289 288 289 289 289 289 288 287 287 287 287 287 286 285 284 284 284 284 284 285 285 285 285 285
286 282 281 275 278 287 288 288 290 291 291 290 289 287 290 292 292 293 292 294 295 296 297 296 295 292 291 291 291 292 292 293 292 292 293 294 294 294 295 294 295 295 294 294 294 294 293 292 292 291 293 293 291 294 291 291 291 289 289 289 289 288 289 288 288 288 288 288 288 287 286 286 286 286 285 285 284 283 282 282 282 283 285 285 285 284 284
279 282 282 281 285 285 286 286 285 285 285 285 287 284 287 292 292 292 292 293 293 291 290 288 288 288 288 290 292 289 292 294 294 293 293 293 294 294 294 294 294 293 291 291 292 290 291 292 292 293 291 288 289 290 289 289 287 287 287 288 289 289 288 288 287 287 288 288 287 286 285 285 285 285 284 283 282 282 282 281 282 283 284 284 284 284 284
285 280 277 277 278 276 282 288 289 289 289 291 291 289 285 287 286 288 288 287 287 287 285 286 286 286 288 288 290 290 293 294 293 293 293 293 292 292 293 292 290 290 290 289 290 290 290 290 291 289 288 287 287 288 288 286 285 286 286 288 289 288 288 287 286 286 286 287 287 285 284 285 285 284 283 283 282 282 282 281 281 282 283 284 284 284 284
283 280 277 278 276 279 286 285 285 286 288 291 288 287 284 285 282 286 287 285 286 285 285 286 285 286 283 283 287 290 291 292 292 291 292 292 292 292 291 291 291 290 290 289 288 288 289 290 292 288 286 286 287 289 288 286 284 286 287 288 287 287 287 285 285 285 285 286 286 285 284 284 284 283 282 282 280 280 281 281 281 281 283 283 283 283 283
283 282 280 277 282 280 284 284 286 289 288 291 287 279 279 285 283 285 285 285 284 284 284 285 284 282 282 284 288 292 292 291 290 290 290 291 291 291 291 291 291 290 287 286 288 289 289 290 288 285 284 285 286 288 288 284 285 287 288 288 286 283 283 284 284 284 284 285 284 284 284 283 282 282 280 279 279 280 279 280 280 281 283 283 282 282 282
282 283 280 282 282 286 287 286 285 284 287 287 279 275 284 284 284 283 284 285 284 284 286 286 285 285 287 289 291 291 289 289 290 291 290 291 290 289 289 290 289 289 290 289 288 287 288 287 285 284 283 285 287 286 285 284 286 287 285 283 282 282 282 281 281 282 281 283 283 281 282 282 281 279 279 279 279 279 279 280 281 281 281 282 281 281 281
280 281 279 279 283 285 283 282 286 285 285 279 278 282 283 283 282 283 284 284 283 283 285 285 286 288 288 287 288 287 288 287 289 289 289 290 291 291 290 289 288 288 288 288 288 288 286 284 283 283 283 285 286 285 284 285 286 282 281 281 281 281 280 280 280 280 279 279 280 280 279 280 279 277 276 278 279 279 280 281 281 281 281 281 280 280 280
284 282 279 279 275 284 284 287 285 285 281 281 285 284 284 282 283 284 282 284 285 285 286 285 286 287 287 287 287 288 288 288 289 289 289 289 289 289 289 289 289 287 286 287 287 286 286 283 282 282 281 283 284 284 283 285 282 280 281 280 280 279 279 279 278 277 277 277 279 279 279 279 278 277 277 278 278 280 281 281 281 280 280 279 279 279 279
278 280 277 278 285 286 288 285 281 284 283 287 285 287 287 285 283 283 284 283 285 286 288 289 288 288 287 287 287 288 289 289 289 289 289 289 289 288 288 286 286 285 285 286 286 286 284 283 281 281 281 283 284 283 283 281 279 280 279 279 278 278 277 276 276 276 276 277 278 278 278 278 278 277 277 278 279 280 280 280 280 279 279 279 278 278 277
283 278 281 286 284 286 287 285 284 286 289 288 287 287 287 288 287 285 288 287 287 287 288 288 288 288 288 287 288 287 288 288 288 288 289 288 288 288 287 287 285 283 284 284 284 285 285 281 280 280 279 281 282 282 280 279 279 279 278 278 278 277 276 275 276 275 276 277 277 276 276 278 277 277 277 277 277 278 280 280 279 278 278 278 278 277 277
280 280 284 283 282 283 286 286 284 286 287 287 287 288 288 287 288 287 288 288 287 286 287 287 287 286 287 287 287 288 288 288 288 288 289 289 289 288 288 287 285 283 283 282 283 283 284 282 280 279 280 279 281 281 279 279 278 277 277 277 276 276 275 275 275 276 276 275 275 275 275 276 277 277 277 277 277 277 279 279 279 278 278 278 277 277 277
279 276 281 281 283 283 283 283 283 283 284 284 285 285 286 285 285 284 284 286 286 286 285 286 286 286 286 286 287 287 287 288 288 288 288 288 288 288 287 287 284 283 282 283 283 283 282 282 277 278 276 278 279 278 277 277 277 276 276 276 276 275 275 276 275 276 276 276 275 276 275 275 276 276 277 277 277 277 278 278 278 278 278 277 277 277 277
277 277 281 280 282 283 282 283 282 284 285 284 283 284 284 284 283 283 284 284 283 283 284 284 283 284 285 285 286 287 287 288 288 288 288 288 288 288 287 285 283 281 282 281 281 281 281 282 277 276 275 276 276 275 275 276 275 275 276 276 276 275 275 276 277 277 277 278 278 277 277 278 277 276 276 277 278 278 278 278 278 278 278 277 277 277 276
276 277 279 278 279 279 280 279 281 282 283 282 282 282 282 282 283 284 284 282 284 284 285 284 283 283 284 285 285 286 287 287 287 288 288 288 287 287 287 286 282 282 282 281 281 280 280 279 275 274 274 273 273 274 275 275 275 276 276 277 276 275 276 278 278 279 279 279 279 279 279 279 278 277 279 279 280 280 280 281 280 279 278 278 278 278 277
273 275 277 276 276 273 278 279 282 283 281 282 281 282 283 283 283 283 283 284 283 282 283 283 283 283 284 285 285 285 286 286 286 287 287 287 287 287 287 285 282 280 280 279 279 279 279 275 273 273 272 272 272 273 273 275 276 278 278 278 276 277 278 279 279 279 279 279 279 279 279 279 279 279 281 282 281 280 280 282 283 282 281 279 279 278 277
273 278 279 279 279 278 280 283 283 280 281 281 281 281 280 282 282 282 282 283 283 284 284 284 283 283 284 284 284 284 285 286 286 286 286 286 286 286 286 284 284 283 282 279 277 277 277 273 272 271 272 271 273 273 274 276 279 280 279 279 279 279 279 280 280 280 279 279 279 279 279 279 279 278 279 281 283 283 283 282 283 283 282 282 282 280 278
278 279 280 280 280 280 280 280 279 278 278 279 279 279 280 280 280 281 281 281 281 282 283 283 282 282 283 284 283 283 284 285 285 285 285 285 285 285 284 283 282 282 281 280 278 278 276 273 273 271 272 272 274 274 275 277 280 281 281 280 280 280 280 281 281 280 279 279 279 278 278 278 278 278 278 277 279 283 284 284 284 284 284 283 282 281 281
282 281 280 281 280 279 280 280 279 276 276 277 278 278 277 276 276 278 279 279 280 280 281 281 281 281 282 283 283 282 282 283 284 283 284 284 284 283 283 282 281 281 281 280 278 276 274 273 274 274 274 273 272 274 278 281 282 282 282 282 281 281 281 281 280 279 279 278 278 278 277 277 277 277 277 277 276 277 280 284 284 284 284 283 283 283 282
277 275 276 278 279 279 279 279 279 275 274 276 276 274 274 274 275 275 276 277 278 278 278 278 278 280 280 280 281 282 282 281 282 283 282 282 282 282 282 282 282 281 279 278 277 275 273 273 273 275 277 276 274 274 275 281 282 282 282 282 282 281 280 280 279 278 278 278 277 277 277 276 277 277 277 277 277 277 277 278 279 281 283 283 283 283 283
272 273 276 278 279 276 275 276 275 274 273 275 273 272 272 272 273 274 274 275 274 275 274 275 276 277 276 277 278 280 279 280 281 281 281 281 280 281 281 281 279 278 278 277 276 274 274 274 274 276 277 275 273 272 274 278 281 282 281 280 280 278 276 277 279 278 278 278 277 277 276 276 276 276 276 276 277 276 276 276 276 276 277 279 281 282 281
270 270 273 277 277 275 272 272 272 272 273 273 271 271 271 271 270 270 270 271 271 271 271 271 272 271 271 273 274 274 277 277 278 279 279 280 280 280 278 277 277 276 277 276 275 273 273 274 275 275 274 272 271 271 273 275 279 280 280 280 279 278 278 277 278 278 277 277 277 277 276 276 276 276 276 276 275 275 275 275 275 275 276 277 278 280 282
267 268 268 268 269 270 271 271 271 272 271 272 270 268 268 267 267 268 268 268 269 268 268 268 268 268 269 270 271 272 274 274 274 275 277 279 279 278 275 273 273 272 273 274 274 273 273 273 273 273 272 270 269 270 272 275 279 279 278 278 278 278 277 277 277 277 277 277 277 277 277 276 276 275 275 275 274 275 275 275 275 275 276 276 277 278 279
264 264 266 267 268 268 269 268 269 269 269 268 266 265 266 266 264 265 266 266 266 265 266 265 265 265 266 267 268 269 269 269 269 271 273 275 276 274 272 272 272 271 270 271 273 274 274 275 275 274 273 268 268 269 271 274 277 277 277 277 277 277 277 276 277 277 277 277 276 276 275 275 275 275 274 274 273 274 274 273 274 274 275 275 275 275 274
263 263 263 266 265 265 265 266 266 266 267 265 264 264 264 263 262 262 263 264 263 263 263 262 262 263 264 265 265 265 266 266 267 269 271 274 274 271 269 270 272 275 275 274 273 274 274 274 273 273 269 266 267 268 270 274 276 276 276 277 276 277 277 277 278 277 277 276 275 275 275 275 274 274 273 273 272 273 273 273 273 273 273 274 274 273 271
261 264 263 264 263 263 263 264 265 264 263 263 261 261 261 260 259 260 260 261 261 261 260 260 260 261 262 263 263 263 263 264 266 268 270 272 273 271 266 265 268 270 270 271 271 272 272 271 271 268 265 266 267 268 269 272 275 276 276 274 275 276 276 277 277 276 275 274 275 275 274 274 273 273 272 272 272 272 272 273 273 273 273 272 271 270 270
262 267 266 262 260 261 261 261 261 260 260 260 261 261 260 260 260 260 260 260 259 259 259 259 260 261 260 260 260 261 262 264 266 268 270 272 273 270 265 264 264 265 267 267 266 265 266 268 267 265 265 266 267 268 270 272 274 275 274 275 275 275 273 276 275 275 274 274 274 274 274 273 273 273 272 272 271 271 272 272 272 272 272 271 270 269 269
260 261 260 257 257 258 258 258 258 258 259 259 259 259 259 259 258 258 258 258 258 258 258 259 259 259 259 259 259 261 262 264 266 269 270 272 274 271 265 263 262 262 263 264 264 264 264 264 264 265 265 266 267 268 269 271 273 274 274 274 274 274 274 274 274 274 273 273 273 271 272 271 272 272 271 270 271 271 271 271 271 271 270 268 268 268 271
257 257 258 257 257 257 258 257 256 257 257 256 256 256 256 257 257 257 258 258 257 257 258 258 258 258 258 258 259 261 263 264 265 267 268 270 272 270 267 267 266 265 264 263 263 263 263 263 263 264 265 266 266 268 269 271 272 272 272 273 272 273 273 272 272 272 272 271 271 271 270 270 269 267 268 269 269 269 270 269 270 269 267 266 266 268 271
255 254 255 255 254 253 253 254 255 255 255 255 255 255 255 255 256 256 256 256 257 257 257 257 257 257 257 258 259 261 262 262 263 265 267 269 270 268 266 266 265 265 266 265 263 262 262 262 263 263 264 265 265 266 267 270 272 272 271 272 271 271 270 270 270 269 269 270 269 268 268 266 266 266 266 267 267 268 268 268 267 266 266 265 266 268 268
253 253 253 253 253 252 251 253 253 253 253 253 254 254 254 254 254 255 256 255 256 256 256 255 255 256 256 258 259 260 261 262 263 266 267 268 267 266 267 267 265 265 266 266 264 261 262 262 262 263 264 265 265 265 265 264 270 270 270 270 270 270 269 269 269 268 267 266 266 265 265 265 265 264 264 265 265 265 266 266 265 264 264 264 265 265 264
252 252 252 252 251 251 251 252 253 253 253 252 253 254 254 254 254 254 254 255 255 255 255 255 255 256 257 258 258 258 260 262 265 265 265 265 266 265 266 267 266 265 266 264 261 261 262 262 262 263 263 263 263 264 264 264 266 269 269 269 269 268 268 267 266 265 264 264 264 265 265 264 264 263 262 262 262 262 263 263 263 262 262 262 263 263 263
252 252 252 251 251 250 251 252 251 251 252 252 252 252 254 254 254 254 254 253 254 254 254 254 255 255 256 256 257 259 260 262 263 263 263 264 264 264 261 256 256 257 258 259 261 261 261 262 262 262 262 263 263 264 264 264 265 268 268 267 267 266 266 265 264 264 263 263 264 263 263 262 262 261 261 260 260 259 259 260 260 260 261 261 261 261 261
251 251 251 251 250 251 251 252 251 252 252 252 252 252 253 254 253 253 253 253 253 255 254 254 254 254 255 257 257 258 259 260 260 260 261 262 261 260 258 258 258 258 259 259 260 261 261 261 262 262 262 262 263 264 264 264 265 266 266 266 265 265 264 264 264 263 263 263 262 260 261 260 260 259 259 259 259 259 258 258 258 258 258 258 258 258 258
251 251 251 251 251 251 250 251 251 252 252 252 252 252 253 253 253 253 253 253 253 254 253 254 254 255 257 257 258 258 259 259 258 257 258 260 262 262 261 259 258 257 258 259 260 260 260 260 261 261 261 262 263 262 264 263 265 265 265 264 264 264 263 263 263 263 262 262 261 261 260 260 259 259 259 259 259 259 258 258 257 257 258 257 257 256 255
250 250 250 250 250 250 250 251 251 252 252 252 252 252 252 253 253 252 253 254 254 254 254 255 256 256 257 258 258 259 259 259 258 257 256 255 255 256 259 258 257 257 259 259 260 259 259 260 260 260 262 262 262 260 261 264 264 264 264 263 263 263 262 262 262 261 261 261 261 260 260 260 259 258 258 258 258 258 257 257 257 256 256 256 256 256 255
249 249 249 249 250 250 249 250 250 251 251 252 252 252 252 252 253 252 253 253 253 254 254 255 256 256 257 257 257 257 258 258 258 258 257 257 257 256 256 256 258 258 258 258 259 259 259 259 260 260 259 261 261 260 261 263 262 262 262 261 261 261 261 261 261 261 261 260 260 260 259 259 259 258 258 258 257 257 257 256 256 256 255 255 254 254 254
249 248 247 247 247 249 250 249 250 250 249 251 253 252 252 252 252 252 253 253 253 254 254 254 255 255 256 256 256 256 256 256 255 256 257 258 257 258 258 257 258 258 258 258 258 259 259 260 260 259 259 259 259 260 262 262 262 261 261 261 260 260 260 260 260 260 260 259 259 259 259 258 258 258 257 257 257 257 256 257 257 256 255 255 254 254 253
246 246 246 246 247 248 247 247 249 250 251 252 252 252 252 252 252 252 252 252 253 254 255 254 254 255 255 256 256 256 256 256 255 255 255 257 256 255 257 257 258 258 258 258 259 259 259 259 259 259 259 260 260 260 261 261 261 260 260 260 259 259 259 259 258 258 258 258 258 258 258 258 258 258 258 257 257 257 257 257 256 255 255 255 255 254 253
246 245 246 249 247 246 247 247 249 249 250 251 251 252 252 251 252 252 252 252 252 253 254 254 254 254 255 255 256 257 257 257 256 256 256 255 254 255 257 257 257 257 258 258 258 259 259 259 259 260 260 260 260 261 261 261 260 260 260 259 259 258 258 258 258 258 258 258 258 258 258 258 258 258 258 258 257 257 256 256 255 254 254 253 253 253 252
245 245 245 245 246 246 247 247 249 249 250 249 249 249 251 251 251 251 251 252 252 252 252 253 253 254 255 256 256 255 256 257 257 257 257 257 258 257 258 257 257 257 258 258 258 258 259 259 259 260 260 260 260 260 260 260 260 260 259 259 258 258 258 258 257 257 257 257 257 257 257 257 257 257 256 256 255 255 254 254 253 253 252 253 253 253 253
246 245 246 245 245 245 246 246 247 247 247 248 248 249 250 250 250 250 251 251 251 251 252 252 252 253 254 255 256 257 257 256 254 255 257 257 258 258 258 257 258 258 258 258 258 258 258 259 259 259 259 259 260 260 259 259 259 259 259 258 258 258 258 258 258 257 257 257 257 257 257 256 256 255 255 254 254 253 253 253 252 252 253 253 253 253 253
244 244 245 245 245 246 246 247 247 248 247 248 247 249 250 250 249 250 250 250 250 250 251 250 251 252 253 254 255 255 256 257 256 255 257 258 257 257 258 258 258 258 258 257 257 257 258 258 259 259 259 259 259 258 258 258 258 258 258 258 258 257 258 257 257 258 257 257 257 257 256 255 255 255 254 254 253 253 253 252 252 252 252 253 253 254 254
245 245 246 246 246 247 246 245 246 246 247 248 248 249 250 249 248 250 250 250 250 252 250 250 251 252 252 253 254 254 255 256 256 257 257 257 257 257 257 257 257 257 257 257 256 256 256 257 257 257 257 257 258 258 258 257 257 257 257 257 256 256 256 256 256 256 256 256 256 255 255 255 255 255 254 253 253 253 253 252 252 254 255 254 253 253 253
245 245 245 246 245 246 244 244 245 247 246 248 247 249 249 248 248 250 250 250 250 250 250 251 252 252 252 252 253 253 254 254 255 256 256 256 256 256 256 256 256 256 256 256 255 255 255 255 255 256 256 256 256 256 256 256 256 256 256 256 256 256 256 256 255 255 255 255 254 254 254 253 252 252 252 252 252 252 252 252 252 252 252 252 252 251 251
244 244 244 244 244 243 243 244 246 247 245 247 246 247 247 248 247 248 249 251 249 249 250 250 251 252 252 252 252 252 253 253 254 254 254 255 254 254 255 255 254 254 254 254 255 255 255 255 255 255 255 255 255 255 255 255 255 255 255 255 255 255 255 255 254 254 253 253 252 252 252 251 251 251 251 251 251 251 251 251 250 250 250 250 249 250 249
Wind_Speed
4 3 4 3 2 2 2 2 1 0 2 2 6 9 12 5 9 16 11 3 9 17 20 20 13 0 1 4 5 6 7 5 5 6 7 9 9 10 9 10 9 8 9 9 9 9 10 9 10 11 10 9 7 8 9 9 8 12 10 9 11 10 9 10 13 13 8 7 7 8 8 7 8 8 8 8 7 7 7 8 7 8 7 7 8 7 6
7 6 8 6 4 4 3 5 5 4 3 7 9 12 11 9 8 9 11 11 14 14 18 19 17 6 5 6 6 7 6 7 7 7 8 8 10 10 10 8 8 8 10 10 10 10 10 11 11 11 11 10 10 9 10 8 8 10 6 10 9 10 12 14 13 10 8 7 8 8 8 10 9 8 8 8 8 8 8 8 7 7 6 7 7 8 8
11 15 11 5 7 7 7 5 3 4 7 10 11 7 7 4 7 11 16 16 18 17 9 11 17 16 3 2 10 13 12 7 5 5 8 9 10 11 9 7 7 8 9 10 10 11 12 12 12 12 11 10 9 8 9 9 10 10 8 9 9 10 13 13 13 9 8 9 8 9 10 8 8 8 8 7 8 7 7 7 8 7 7 8 7 7 8
8 11 9 10 3 2 4 10 12 15 16 16 13 11 7 7 13 14 7 8 14 16 1 5 13 13 10 11 13 14 13 8 3 5 7 10 12 9 7 7 7 8 8 9 10 11 11 11 11 11 11 11 9 9 10 10 12 6 7 9 11 12 13 10 8 9 10 9 9 10 8 10 8 7 7 7 8 8 7 8 7 7 8 8 8 8 7
10 4 5 4 4 2 5 12 20 21 17 17 17 14 11 14 14 11 10 16 15 11 8 6 13 16 18 16 14 15 13 5 1 4 8 10 9 10 11 10 9 8 9 9 9 9 7 9 10 12 11 10 11 12 11 12 6 5 8 10 11 11 11 10 10 9 7 8 9 9 9 7 6 6 7 7 8 7 9 8 7 8 8 8 8 8 8
5 4 6 4 5 9 13 14 7 9 17 18 16 17 21 21 12 9 10 10 10 10 12 14 16 17 16 15 15 9 7 6 3 6 9 8 6 8 10 10 11 9 8 8 7 7 7 9 9 10 9 9 12 11 11 9 5 8 8 10 10 11 10 9 9 7 7 8 9 8 6 6 7 8 8 9 8 7 6 6 8 8 7 8 8 8 9
5 3 7 4 13 13 11 0 7 13 15 13 16 20 18 14 12 10 13 16 17 18 17 16 16 13 12 12 14 14 6 2 4 7 9 8 7 8 8 10 10 9 8 8 8 8 8 7 7 6 9 8 9 9 10 9 7 7 7 8 8 9 9 8 6 8 8 8 8 7 7 7 8 8 9 7 7 7 8 9 9 9 9 8 7 7 7
1 3 5 9 7 1 3 6 7 2 2 7 7 11 12 9 10 12 15 16 16 16 15 11 8 7 10 8 5 4 5 6 5 6 6 8 9 9 7 8 9 8 8 9 9 9 8 7 7 6 8 8 6 10 6 7 8 6 7 7 8 7 9 8 8 7 8 8 7 6 7 7 8 8 7 8 9 7 7 6 5 5 5 6 7 7 7
5 3 8 9 6 12 11 9 5 4 4 4 8 8 9 9 6 7 11 12 8 6 5 5 7 9 6 7 2 3 7 14 11 9 7 5 8 9 10 8 9 8 7 8 9 8 9 9 9 9 7 5 6 7 6 6 5 5 5 8 9 9 9 8 8 7 7 8 7 7 7 8 8 8 7 7 6 6 7 7 7 7 7 7 6 7 7
6 6 5 1 3 10 13 13 2 2 4 6 7 7 4 6 5 3 4 2 2 4 5 6 8 6 8 10 4 6 13 13 12 12 12 9 6 7 9 9 7 8 8 9 10 8 9 11 10 8 7 6 5 6 7 5 4 5 5 10 9 7 8 6 6 6 6 7 7 7 7 8 7 6 6 5 7 7 9 8 8 7 6 6 6 6 8
3 5 7 8 7 8 6 6 3 4 5 4 4 5 8 1 1 1 3 2 1 2 1 6 5 8 6 7 8 5 6 13 13 12 11 9 9 8 8 10 11 11 10 9 10 10 10 12 12 7 7 6 5 8 7 6 5 6 9 9 7 8 7 5 5 6 7 7 8 8 7 7 7 8 8 8 6 6 6 6 6 6 6 6 5 5 6
10 7 7 9 4 7 7 2 1 2 3 6 4 6 4 2 3 1 0 2 2 3 2 1 3 2 5 8 11 10 9 9 11 9 13 13 11 11 10 9 9 9 8 6 9 10 10 13 9 8 6 5 7 8 8 5 6 10 10 9 6 4 4 5 5 5 6 7 7 7 8 6 6 7 5 5 6 6 5 6 6 5 5 5 6 5 5
12 13 9 6 7 5 6 5 6 6 1 3 3 9 2 4 4 3 2 3 4 3 0 1 5 2 4 9 11 10 9 10 13 12 8 10 8 8 8 9 9 9 11 9 10 11 10 11 9 6 5 6 9 8 7 6 11 10 6 4 4 4 3 3 3 3 3 4 6 4 5 6 5 4 5 6 6 6 6 5 5 5 5 4 5 4 4
12 12 12 10 8 4 3 3 2 3 5 7 11 2 2 3 3 4 3 3 4 2 2 2 4 7 7 7 9 9 8 7 9 10 10 10 13 12 8 8 6 7 10 11 12 12 7 7 7 6 6 8 9 8 7 11 11 4 3 3 2 2 2 2 1 1 1 1 2 3 4 5 6 5 3 5 6 6 6 6 7 6 5 4 5 4 3
6 5 8 8 11 3 2 0 1 1 4 3 2 1 2 3 2 5 3 4 3 3 3 4 6 7 9 8 9 10 11 9 9 10 12 14 13 13 14 16 14 10 11 13 13 13 11 7 5 5 5 9 10 8 10 10 5 3 2 2 2 2 2 2 2 2 2 3 4 3 5 5 7 6 5 6 5 6 7 7 7 7 6 6 6 5 4
6 8 9 7 4 3 3 1 5 0 3 2 6 5 0 2 3 1 4 4 4 4 4 5 7 7 8 9 8 10 12 11 12 12 11 11 12 11 8 6 9 9 11 12 13 11 9 7 5 4 4 8 9 9 11 5 2 0 1 3 3 3 3 3 3 3 4 4 4 4 5 6 7 8 7 7 7 6 7 7 7 6 5 5 5 5 5
6 4 3 2 3 4 0 3 3 3 3 2 6 5 3 2 2 4 0 3 3 5 4 5 6 8 8 9 10 8 11 12 11 12 12 12 13 14 12 10 7 6 8 11 13 15 12 7 5 4 3 6 9 9 6 0 1 1 2 3 4 4 3 3 4 4 4 4 4 4 4 6 7 6 7 7 7 5 7 6 6 6 6 5 5 5 5
2 2 2 4 1 2 1 0 2 3 3 1 3 5 1 3 6 3 3 4 3 3 3 4 6 6 8 9 11 11 11 11 12 11 11 12 11 11 11 10 6 6 8 9 10 12 15 7 6 4 4 4 9 8 2 1 1 1 2 3 3 4 4 4 4 5 6 5 4 4 4 3 4 4 6 6 7 6 6 6 6 7 7 6 6 5 5
5 8 1 4 4 1 1 3 3 2 1 1 3 4 5 4 4 4 4 5 4 4 3 4 6 8 9 9 10 10 10 12 12 12 12 13 13 12 13 13 9 10 6 10 11 11 13 10 5 5 4 5 7 5 3 2 1 2 3 3 3 3 4 4 4 5 7 6 5 5 4 4 4 4 5 5 6 6 6 7 7 6 7 7 6 6 6
5 6 3 2 1 2 4 4 1 3 2 1 4 4 3 3 3 2 4 2 4 3 4 4 3 7 8 8 10 10 11 11 12 12 12 13 13 12 9 10 9 8 9 10 11 10 11 10 5 5 4 5 5 3 2 1 2 3 3 3 4 4 4 3 4 5 6 7 7 6 5 6 6 5 4 5 6 7 7 8 9 8 7 7 7 7 7
4 5 6 2 1 1 2 0 4 4 3 2 1 2 3 4 4 6 6 3 5 5 7 5 3 5 8 8 9 10 11 11 12 13 14 14 13 13 13 10 7 9 10 12 11 10 12 7 4 4 5 5 4 4 2 1 3 4 4 3 3 4 4 4 4 4 5 5 6 6 6 5 3 3 6 6 6 4 3 4 6 8 8 6 6 6 7
2 7 5 1 1 3 4 5 7 7 5 5 4 4 5 5 5 5 5 7 5 4 4 4 4 5 7 8 7 10 12 12 13 13 14 14 15 15 12 8 8 8 9 9 12 12 11 6 4 3 4 4 4 3 2 2 3 5 4 5 4 4 4 4 5 5 5 6 6 6 6 6 6 6 6 6 3 5 4 6 8 6 8 6 7 7 7
5 3 5 2 3 3 6 7 7 6 6 6 7 6 4 4 4 5 6 8 9 9 8 5 5 6 6 8 7 9 10 12 12 11 12 13 14 15 14 13 15 12 10 8 8 11 10 5 5 3 3 3 3 3 3 3 3 4 5 6 5 4 5 5 6 6 6 7 6 6 6 7 6 7 7 6 9 8 7 8 9 11 9 12 14 11 10
2 3 5 5 3 4 5 3 3 7 6 5 4 3 3 5 6 7 6 5 6 9 8 6 4 5 9 9 6 9 12 12 11 12 12 12 11 12 12 11 12 14 15 11 9 11 8 5 6 4 2 1 1 3 3 3 3 5 5 6 6 6 5 5 6 6 6 6 7 7 6 6 7 7 8 8 7 9 9 9 10 11 12 14 14 13 12
6 2 1 1 3 3 3 2 8 6 7 6 4 5 7 6 6 6 6 6 4 5 8 11 9 5 7 10 10 9 10 13 11 10 12 13 13 12 12 12 12 11 11 10 8 7 5 6 6 5 3 2 0 2 3 3 4 6 7 6 6 7 7 7 6 6 6 7 6 7 8 8 7 7 8 8 10 8 8 11 12 11 12 13 13 13 13
2 3 2 1 1 1 2 1 3 10 10 7 4 5 5 5 7 5 5 4 5 4 6 8 12 9 5 9 11 12 13 13 14 12 10 10 11 11 12 12 12 10 9 8 7 5 4 5 5 5 5 2 1 1 4 3 4 5 5 5 6 6 8 8 9 8 8 8 8 7 7 7 7 7 6 7 8 9 10 8 8 9 10 11 11 12 12
5 4 2 1 0 3 8 4 3 8 6 3 5 6 7 9 9 6 5 3 4 5 5 6 7 10 10 8 10 12 13 16 15 12 9 10 10 10 11 10 10 10 9 9 7 5 4 4 4 5 5 3 2 2 3 5 4 4 3 2 3 3 5 6 6 7 7 7 7 8 7 7 7 7 7 6 7 8 8 10 9 8 6 6 7 9 9
7 7 5 3 4 0 1 2 4 3 2 4 6 7 8 7 8 9 11 11 9 6 4 4 9 12 13 11 9 13 14 12 13 13 13 13 11 9 8 8 9 8 8 7 7 5 4 5 5 5 4 2 3 2 1 3 3 3 2 3 4 4 5 6 6 6 6 6 6 7 8 7 6 7 7 7 7 7 6 7 8 9 7 5 5 9 13
5 5 4 2 2 2 2 3 2 3 4 3 5 7 9 12 10 7 7 8 10 12 11 10 6 7 10 13 11 12 13 15 17 18 16 14 13 11 8 7 7 6 6 7 6 4 4 5 5 6 5 1 3 4 3 2 2 3 4 3 3 3 4 4 4 5 5 5 6 6 6 7 7 7 7 6 5 7 6 7 8 6 8 8 7 8 7
3 1 2 2 2 1 1 3 2 3 4 6 9 7 6 7 11 10 9 9 9 12 11 11 13 12 10 11 11 10 13 16 18 19 19 16 12 10 9 7 6 6 5 6 7 5 6 7 7 7 5 1 2 4 5 4 3 5 6 6 5 4 2 2 2 3 5 5 6 8 7 7 7 7 8 7 7 7 7 7 7 8 8 7 6 8 9
4 2 4 1 4 4 5 2 1 2 4 5 8 9 7 5 5 9 9 10 10 11 12 12 13 15 12 11 12 13 13 14 15 17 18 17 13 9 6 4 5 10 9 7 5 4 5 6 6 6 2 3 3 2 3 4 3 4 5 6 7 8 9 7 5 4 4 6 6 7 7 7 7 8 8 8 8 7 7 7 8 7 6 7 7 7 7
6 3 1 4 4 4 3 2 4 5 6 6 7 7 8 9 10 12 11 10 8 10 14 16 14 14 14 13 14 16 15 15 15 16 16 16 14 10 5 4 5 6 7 7 6 3 2 3 7 4 2 5 5 3 2 3 4 5 5 5 6 6 8 11 6 6 4 4 6 7 6 8 7 7 8 8 9 9 8 8 8 8 7 7 7 5 4
3 5 2 4 8 4 1 3 5 4 5 6 5 5 5 5 6 8 9 10 12 11 10 13 13 13 14 15 15 15 16 17 17 15 14 13 12 8 4 3 3 3 3 3 4 4 4 3 4 3 4 5 6 5 3 3 4 4 4 5 6 6 7 7 7 7 5 5 6 7 7 6 7 7 7 7 7 6 7 7 7 7 6 5 5 4 4
2 1 0 1 0 3 7 7 3 5 5 5 5 5 5 6 6 8 9 9 10 11 11 12 14 14 14 15 16 16 15 14 13 13 14 15 14 9 4 4 3 1 0 1 2 3 3 3 4 5 6 6 6 6 3 2 3 4 4 5 6 6 6 5 6 7 6 5 4 4 5 5 6 6 5 6 7 7 6 7 5 5 6 6 5 4 5
4 3 3 2 2 3 3 5 6 6 7 9 7 5 6 7 8 9 11 11 11 11 12 13 13 14 14 15 15 15 13 13 14 16 17 16 15 11 6 6 4 3 3 1 1 1 3 4 5 6 7 7 6 7 6 5 6 3 2 2 3 4 4 4 5 5 5 5 4 5 5 5 4 4 4 6 6 5 6 4 6 6 7 7 6 4 5
2 1 1 2 2 3 4 4 4 5 6 7 8 8 9 8 10 10 11 11 10 11 12 13 13 14 14 14 14 14 14 15 15 16 17 16 15 10 7 7 6 6 5 4 1 0 2 3 5 7 6 5 5 5 7 6 4 9 8 6 5 4 4 5 4 5 3 4 4 3 4 4 5 4 5 5 6 6 6 6 6 6 6 6 6 6 5
1 0 1 2 3 3 4 4 4 5 6 7 8 9 10 8 9 9 9 10 10 10 11 12 13 13 14 13 14 14 15 14 14 14 13 13 10 9 9 8 5 7 5 6 1 3 3 3 5 8 5 4 4 5 6 6 1 2 2 4 6 7 7 6 6 6 5 5 5 5 5 4 5 5 4 6 6 6 6 6 5 5 6 6 5 5 4
1 0 1 1 3 3 4 5 5 5 7 10 8 8 9 10 9 9 9 9 9 10 10 11 12 14 14 14 14 14 15 15 15 14 13 12 10 10 10 7 6 3 5 2 4 4 3 4 6 4 3 3 4 4 5 6 3 4 3 3 4 5 5 6 6 4 5 5 4 6 6 6 6 6 5 5 5 6 5 6 5 7 6 5 5 5 5
2 1 1 2 2 3 6 4 4 5 5 9 10 9 9 9 9 9 9 9 10 10 10 11 12 13 13 14 13 13 14 15 14 13 13 12 8 7 6 3 3 3 4 6 6 4 4 5 3 3 3 3 4 4 5 3 4 4 5 4 4 4 5 5 6 5 5 4 6 6 6 6 6 6 6 5 6 6 5 6 7 5 6 5 5 5 5
2 2 3 3 3 4 4 4 4 5 5 5 7 9 9 8 8 8 9 10 9 8 10 11 12 11 12 13 13 14 14 14 12 10 11 9 6 4 3 2 3 5 6 8 6 4 5 7 5 3 3 3 3 2 3 2 3 3 5 6 5 4 5 5 6 6 6 6 7 6 6 6 6 6 5 5 6 6 5 6 7 6 6 5 5 5 4
2 2 3 2 3 3 4 5 5 6 5 6 5 6 6 7 8 8 9 10 10 9 10 10 11 12 13 13 14 14 13 9 7 7 8 7 6 4 6 6 4 4 6 6 5 5 6 5 4 3 3 3 3 3 2 3 3 3 3 5 6 6 6 6 6 6 6 7 5 7 7 7 7 7 5 6 6 6 6 6 6 5 5 6 5 5 5
3 2 3 3 3 4 4 5 5 6 6 5 5 5 6 6 6 7 9 8 9 8 9 10 11 12 12 12 12 12 9 7 6 6 6 4 4 5 6 3 4 5 8 7 5 5 4 4 4 3 3 2 2 4 5 3 3 3 3 4 5 6 6 6 5 5 4 5 6 6 5 6 7 7 7 6 6 5 6 6 5 5 4 5 5 5 5
2 2 3 3 3 4 4 5 5 6 6 7 5 5 5 5 6 6 6 7 8 8 9 8 9 11 10 10 10 9 7 8 8 6 3 3 5 5 4 5 6 5 8 5 5 4 4 4 4 3 5 3 2 5 7 5 4 4 4 5 5 6 5 5 6 5 6 6 5 5 6 6 6 6 6 6 6 5 5 6 6 5 5 5 5 5 5
1 2 2 2 4 4 4 4 5 5 4 6 5 5 5 5 5 5 6 7 7 7 8 8 9 9 9 9 7 6 6 7 6 7 5 3 3 4 7 6 5 6 9 5 5 5 5 5 4 4 6 6 6 6 4 5 5 5 5 5 6 6 6 6 5 6 6 5 6 6 6 5 6 6 6 6 6 6 5 5 5 5 5 4 4 4 4
2 2 3 3 5 3 3 4 4 5 5 5 5 5 5 5 6 5 5 6 7 7 7 7 8 8 8 8 7 4 3 5 5 6 5 4 3 5 8 7 6 6 7 7 5 6 6 5 6 7 6 8 7 7 5 5 5 6 5 5 5 6 6 6 6 6 6 7 6 6 4 5 5 6 6 5 5 4 4 5 4 4 4 4 4 4 4
2 2 3 3 3 4 4 4 5 3 3 4 5 4 4 5 5 6 5 6 6 6 7 7 7 8 8 8 7 6 2 2 4 5 4 3 3 4 6 6 6 6 9 9 6 6 6 10 10 8 8 9 8 6 5 5 5 5 6 6 6 6 7 6 6 6 6 6 6 5 5 5 5 4 4 4 5 5 5 4 4 4 5 5 5 5 4
1 2 3 3 3 4 5 4 3 3 5 5 6 6 6 6 6 5 6 7 5 5 5 6 7 8 8 9 7 5 5 3 3 4 5 4 4 4 5 8 8 10 8 6 6 6 7 7 8 9 9 9 9 6 6 5 5 5 6 6 5 6 6 6 6 5 5 5 6 6 5 4 4 5 4 5 5 5 4 4 5 4 5 4 3 3 3
1 3 3 5 6 6 5 5 5 6 5 6 5 5 5 6 6 5 6 6 7 4 5 5 6 6 8 9 8 7 5 5 3 4 5 5 4 4 4 4 6 8 8 6 8 10 15 13 12 11 10 9 7 6 6 5 5 5 5 6 5 5 5 4 4 4 4 4 4 4 4 4 4 4 4 4 4 4 3 4 4 2 2 2 2 2 2
3 4 4 4 4 7 6 4 4 6 5 5 5 5 5 6 5 5 6 8 9 6 5 6 6 7 7 8 8 7 7 7 5 4 5 5 5 4 4 5 8 9 6 6 7 6 12 15 13 12 11 8 6 6 5 5 5 5 6 6 5 5 5 5 5 4 4 4 4 4 4 5 4 4 4 3 3 2 3 2 1 2 1 1 1 1 1
2 3 4 3 4 5 5 4 5 5 5 5 5 5 5 4 5 6 6 6 6 7 5 5 5 6 7 6 7 7 7 7 7 6 6 6 7 7 7 7 7 10 9 7 7 7 9 13 11 11 9 6 6 6 6 6 6 6 6 6 5 5 5 5 4 5 4 3 4 5 4 4 3 3 3 3 2 2 1 1 1 2 3 2 3 1 1
2 3 2 3 1 2 3 4 2 4 4 4 4 4 4 4 5 5 5 6 6 6 6 6 5 6 7 7 7 7 7 8 7 8 6 6 6 7 8 7 8 8 8 7 7 7 6 6 7 8 8 7 7 7 7 6 6 6 6 5 5 4 4 3 3 4 4 4 3 3 3 3 3 2 2 1 1 0 0 1 1 1 1 1 2 2 2
2 3 3 3 3 2 2 3 4 5 4 5 4 4 4 4 4 4 4 6 6 5 6 6 6 6 6 6 6 6 6 7 6 6 6 7 7 6 7 8 6 7 7 7 7 7 6 6 7 8 8 6 5 5 5 7 6 5 5 5 4 4 4 3 2 3 2 2 3 2 1 1 1 1 0 0 0 1 1 1 1 1 1 2 2 2 2
Wind_Direction
214 187 248 142 105 187 196 158 197 187 208 172 205 237 237 157 202 234 248 164 231 257 268 276 276 96 201 238 260 238 236 264 289 298 297 290 286 279 269 260 263 266 264 261 266 271 271 278 281 280 279 269 248 243 241 236 222 227 216 201 209 209 214 222 228 231 222 217 217 219 214 211 208 202 194 192 189 186 187 193 190 192 187 186 186 196 191
277 262 249 252 199 188 211 250 240 217 199 220 214 236 244 232 243 264 276 266 249 253 265 277 291 283 252 274 264 270 265 255 267 279 278 277 274 273 269 261 255 260 269 278 279 278 281 278 277 277 275 270 262 252 251 237 227 234 192 218 214 216 213 216 226 225 214 213 211 210 210 211 208 197 190 188 186 191 194 191 188 182 181 189 193 192 188
257 257 253 238 248 252 240 214 239 266 265 259 235 228 251 262 280 260 258 268 274 265 271 301 288 286 316 275 276 273 277 280 247 261 275 272 271 273 278 278 272 262 261 265 270 277 277 279 276 274 273 269 267 260 256 248 236 228 196 217 214 218 226 229 221 203 203 215 204 210 213 207 202 195 190 182 185 191 189 185 185 179 178 189 193 192 192
251 246 235 241 225 223 245 257 244 237 239 249 257 245 217 214 237 247 265 278 266 271 164 227 279 294 290 276 276 282 283 289 309 267 273 277 280 283 280 271 266 270 267 264 266 267 272 276 277 277 276 273 271 263 253 248 246 220 198 216 219 222 228 231 229 213 209 203 203 215 205 210 200 193 182 184 189 188 183 185 185 175 185 189 189 190 191
233 248 156 179 124 99 252 241 234 227 231 231 240 248 244 225 220 237 238 242 254 278 292 282 281 281 284 288 282 282 290 315 48 271 268 270 278 289 293 290 285 279 279 279 281 283 281 278 277 273 270 277 276 270 269 256 245 201 214 219 223 229 229 224 221 218 213 205 210 210 211 202 189 182 187 190 193 185 191 188 172 181 189 183 192 189 188
237 212 129 119 125 215 233 239 224 199 225 228 231 240 238 242 222 230 239 266 282 280 279 271 270 277 278 281 285 280 301 346 328 270 267 284 308 311 309 308 308 309 309 309 303 290 279 278 277 278 283 272 271 274 273 282 246 226 216 226 220 231 229 226 222 213 207 209 213 211 195 187 184 187 187 196 191 190 180 172 181 186 185 188 187 189 189
221 109 118 168 218 227 239 261 144 196 217 226 224 236 242 248 253 252 265 264 262 260 260 265 271 279 292 297 297 316 6 47 327 327 336 349 341 327 324 321 321 322 320 315 318 317 311 297 285 290 288 272 277 285 280 279 260 243 230 230 230 231 232 230 218 213 209 208 211 201 190 186 187 191 190 185 183 184 180 183 183 185 184 187 191 188 189
177 165 170 223 213 214 316 282 244 264 221 230 234 257 260 252 240 235 240 246 253 260 270 289 320 328 296 296 302 22 48 55 37 7 341 326 319 316 309 302 300 306 310 307 303 300 296 300 292 275 268 281 286 272 281 256 260 242 237 231 235 226 229 222 217 212 204 208 206 194 187 187 189 191 185 182 184 180 178 184 184 173 183 182 181 182 182
205 186 209 234 356 318 289 282 259 162 188 170 176 238 256 240 245 236 239 251 273 315 331 328 315 315 317 317 339 14 4 358 359 347 328 314 303 300 302 297 292 293 285 291 295 298 302 301 299 293 286 282 271 278 277 260 247 247 232 237 237 228 227 217 213 206 203 201 201 192 187 187 192 187 178 181 182 167 171 177 175 179 181 178 179 176 175
181 231 263 282 214 240 249 244 278 168 175 169 172 170 270 40 10 28 81 79 322 318 313 336 328 328 8 313 308 14 358 337 338 331 323 320 304 297 295 295 286 290 297 303 303 302 301 299 290 291 290 282 275 272 268 263 247 247 233 240 238 234 235 222 210 200 199 194 193 190 186 192 188 182 180 176 174 172 173 174 179 181 170 168 174 177 176
181 204 226 235 231 239 246 263 226 252 245 181 117 156 239 166 280 307 113 19 304 253 280 319 359 29 348 285 283 320 347 325 324 323 313 308 308 303 300 301 305 303 300 296 293 303 304 302 300 306 288 274 269 267 264 259 245 248 243 247 241 233 234 214 205 196 190 189 188 185 187 187 178 177 180 178 168 166 168 163 168 159 160 161 165 170 175
224 223 227 236 215 253 237 226 205 195 122 113 128 212 243 169 252 245 146 339 281 261 230 204 47 78 331 293 304 318 322 313 305 302 305 311 313 313 311 307 302 295 284 295 303 301 298 293 300 298 283 272 263 263 265 252 248 245 246 245 249 243 229 212 206 195 190 187 185 180 184 177 176 175 154 139 150 154 155 150 149 154 156 158 159 163 160
223 225 246 264 271 259 261 235 229 257 299 51 306 227 197 175 204 228 191 275 266 234 290 15 349 219 228 260 279 300 306 314 309 307 299 297 294 295 302 303 308 311 313 311 298 292 291 295 301 301 291 278 270 265 264 258 248 244 251 258 238 231 216 204 202 204 199 189 180 180 168 163 150 136 143 144 141 141 140 135 133 138 141 142 136 135 148
218 220 224 235 265 244 206 268 196 164 108 205 229 192 142 177 185 210 188 229 262 208 208 210 229 265 268 267 277 283 281 272 279 285 292 302 313 316 316 313 320 318 315 314 314 312 309 299 299 308 306 286 275 276 269 255 256 274 247 221 201 175 168 172 163 143 144 96 123 133 118 119 119 116 109 125 138 135 132 136 137 134 129 128 125 120 115
226 203 235 232 240 248 111 232 17 41 173 236 123 207 272 200 218 156 218 199 248 178 268 258 263 277 293 293 292 296 304 308 304 308 315 320 319 318 323 325 326 334 322 318 316 311 315 316 309 310 312 286 284 284 269 268 291 267 181 137 122 116 105 99 92 96 96 113 109 112 122 127 128 127 129 126 128 130 133 133 133 134 133 132 130 125 112
203 194 210 214 210 153 259 104 188 265 195 164 161 147 175 250 210 198 165 221 220 209 213 274 287 281 290 302 303 311 310 311 314 315 312 309 309 305 293 278 296 318 313 310 311 307 308 307 312 312 301 282 283 283 273 300 306 21 96 103 109 106 102 99 95 93 104 104 106 118 128 128 131 135 140 138 134 140 138 137 137 133 133 129 126 129 124
167 198 206 162 172 144 249 110 151 190 221 173 171 157 171 164 277 200 286 244 227 217 239 262 278 301 295 290 297 300 298 302 303 305 304 301 300 299 300 298 297 301 295 299 304 307 307 307 298 299 290 278 284 274 277 310 257 152 107 106 109 113 110 109 104 101 94 99 111 116 130 136 135 140 138 139 132 141 135 135 138 136 140 138 136 136 127
250 267 188 153 81 113 107 304 200 190 244 221 168 155 185 254 230 208 234 263 252 230 219 248 290 279 289 302 306 306 304 302 300 300 301 303 299 298 301 303 302 290 294 294 297 299 303 304 295 298 296 271 272 266 273 264 228 144 126 116 117 126 122 119 121 116 105 88 89 95 97 99 124 140 142 141 137 142 137 138 139 140 141 138 134 131 129
189 253 37 149 175 133 297 266 269 279 318 188 164 178 211 234 243 250 242 239 261 240 196 217 255 280 292 299 298 299 300 300 300 301 300 298 300 302 304 300 313 310 305 301 298 300 299 305 304 295 301 286 264 270 235 217 172 140 135 132 128 128 128 126 120 119 119 119 112 102 101 98 109 123 131 135 138 137 140 140 139 142 141 142 140 137 138
164 228 141 178 253 247 250 225 296 70 100 194 221 211 217 242 277 255 271 296 288 275 285 253 238 275 292 298 297 302 301 300 300 301 300 299 303 301 292 296 303 298 295 291 292 294 292 296 301 296 298 286 286 272 246 199 156 134 137 150 149 151 143 136 131 130 126 130 126 122 123 128 128 126 133 145 145 154 161 158 153 153 152 153 154 152 146
278 321 293 262 147 304 280 244 198 197 213 228 274 283 289 307 316 315 322 297 275 306 298 327 322 287 287 288 291 294 296 299 302 302 304 305 302 301 305 305 302 294 299 297 290 288 284 286 289 298 292 293 301 285 263 214 163 143 146 139 139 144 149 137 137 134 130 128 126 123 119 109 101 134 156 154 145 128 119 151 158 155 153 149 150 151 149
257 211 232 150 23 280 292 319 308 314 5 64 62 49 38 18 3 339 336 324 319 290 289 308 315 310 300 301 299 298 298 297 299 303 306 307 306 304 302 302 293 289 281 277 285 286 281 282 277 272 282 287 292 278 248 216 179 157 155 146 152 164 159 150 146 138 130 126 127 127 126 121 112 81 67 85 101 129 133 123 118 127 140 150 153 146 148
234 210 210 187 145 215 248 260 289 30 30 48 44 30 10 349 357 348 349 340 338 339 332 343 345 319 307 300 305 300 297 297 297 298 299 303 306 306 310 314 308 299 290 281 278 279 278 278 272 259 254 271 279 274 236 217 195 180 164 162 162 165 165 169 163 151 146 143 144 137 134 133 127 121 110 81 87 106 121 127 133 136 138 137 144 151 151
244 226 215 203 192 235 264 257 92 60 29 32 22 37 24 22 13 357 352 343 337 325 322 326 356 329 316 312 313 304 299 297 302 306 303 298 294 294 297 294 293 299 300 299 285 279 281 268 262 260 239 255 280 286 261 237 206 183 183 176 171 172 172 171 160 156 148 144 140 137 135 134 133 133 122 114 84 74 100 131 132 135 141 144 149 153 156
240 252 36 146 171 225 243 223 99 84 37 15 15 17 29 4 352 345 338 329 338 322 326 324 331 344 321 316 317 308 301 299 299 297 297 299 299 300 298 300 297 293 291 292 291 282 272 265 265 261 236 224 45 355 307 259 230 206 197 189 182 175 175 168 161 149 146 149 148 147 145 143 143 141 136 131 121 114 81 84 96 111 123 133 143 150 153
36 20 331 300 79 26 311 5 113 44 5 6 22 5 360 358 334 339 334 327 320 344 343 327 320 325 349 327 314 311 307 301 301 304 301 298 300 303 301 298 298 298 287 284 280 276 271 264 262 264 254 236 77 44 339 296 248 237 222 203 188 183 176 174 164 161 159 158 155 153 150 149 149 142 139 132 132 127 123 118 95 87 93 111 126 135 140
46 8 11 357 126 94 38 72 303 355 336 4 31 358 351 342 337 322 316 314 326 336 331 315 314 325 328 320 310 306 304 303 306 303 297 294 293 289 289 293 290 286 286 286 282 264 250 256 257 256 258 306 357 41 8 313 269 239 239 198 174 183 177 170 170 164 160 157 158 152 153 150 146 142 137 136 130 130 134 132 127 126 125 114 112 121 130
59 20 18 175 242 177 249 358 335 305 345 16 15 1 344 336 338 342 342 341 337 334 326 337 341 336 324 324 330 315 309 306 302 304 306 303 302 300 291 285 284 282 282 279 274 262 246 240 239 240 240 287 306 326 323 314 283 223 216 191 177 174 179 181 170 167 163 163 161 157 153 147 143 137 137 136 131 127 118 115 122 124 115 113 120 129 128
67 54 37 50 208 255 297 292 320 18 6 13 25 0 353 347 340 347 339 337 328 327 329 334 342 325 317 315 324 318 316 315 313 309 305 302 303 302 301 290 283 282 275 274 274 267 259 257 248 241 228 164 312 310 306 277 199 170 166 179 177 180 187 191 181 164 157 155 154 152 141 140 138 136 134 124 122 123 124 128 127 123 126 130 127 122 117
31 0 334 303 300 327 58 43 32 352 2 9 3 358 355 354 338 333 332 330 337 326 321 328 323 321 323 312 314 323 317 311 307 304 302 298 295 294 295 297 299 283 282 277 266 258 250 252 252 247 226 174 307 303 296 283 196 162 162 158 159 170 182 174 166 163 157 160 152 144 144 146 144 141 133 134 134 134 134 135 139 139 140 140 137 142 144
321 288 249 260 70 40 44 13 46 12 25 13 360 340 345 357 325 314 321 326 326 317 318 321 315 312 316 315 313 312 306 298 294 294 296 297 295 287 286 295 283 286 285 282 276 240 242 256 256 256 306 287 242 244 281 271 218 177 169 166 167 160 159 161 172 180 177 161 159 157 158 155 152 145 141 139 136 135 138 139 140 139 136 137 138 136 121
325 316 140 85 27 358 357 27 32 21 10 359 349 344 345 343 328 321 320 320 317 319 314 315 315 313 312 315 313 310 306 301 298 296 294 294 291 283 276 276 265 271 285 298 307 303 277 258 254 268 320 285 287 282 271 257 227 200 189 172 167 170 164 158 153 166 179 180 170 165 165 156 155 148 143 147 148 149 149 148 147 148 146 143 137 130 125
8 320 293 342 346 348 338 32 4 342 344 332 328 316 318 310 302 302 305 309 310 310 304 300 303 307 311 311 309 307 304 301 296 292 293 294 293 283 275 276 268 279 287 312 323 328 344 307 293 332 289 280 271 261 252 251 247 230 193 175 172 164 161 160 152 150 166 180 184 177 171 165 155 155 155 148 144 145 146 144 144 141 136 124 112 105 91
107 160 125 122 191 289 310 313 342 317 307 300 305 315 312 307 306 302 303 301 299 300 301 303 304 305 306 306 305 303 303 303 304 307 308 306 305 298 274 263 255 251 228 342 356 347 335 337 331 306 295 289 282 272 229 189 214 237 216 185 168 161 159 154 153 158 164 183 179 170 159 152 156 154 146 142 140 141 139 138 132 129 117 106 108 108 131
57 11 28 0 355 324 321 311 313 312 312 308 308 305 301 303 304 300 303 305 302 302 302 301 300 302 303 302 300 297 298 293 296 301 302 303 303 298 273 266 259 240 253 316 12 348 330 324 323 311 300 290 284 284 279 190 148 144 263 205 146 135 133 135 150 163 173 163 152 153 145 142 125 108 114 120 125 122 122 119 122 120 118 120 123 126 134
45 10 355 312 320 310 303 296 294 292 299 296 299 303 304 302 302 303 305 301 302 300 298 298 300 300 298 296 296 299 300 298 295 292 292 297 299 289 272 269 265 268 265 272 196 296 336 321 314 311 299 294 294 291 298 301 171 147 164 162 151 136 134 133 124 108 109 129 129 109 97 97 96 101 110 108 111 117 121 120 118 112 116 124 132 135 118
345 356 303 314 297 310 300 293 295 299 292 296 298 299 296 296 293 294 296 297 298 298 300 302 301 297 292 292 293 293 292 290 288 288 292 296 297 284 274 270 260 257 269 270 48 33 323 317 319 312 298 290 290 296 301 315 327 16 93 146 145 145 142 138 134 128 112 98 105 110 110 103 96 93 97 109 119 117 119 119 112 112 116 127 134 127 106
313 343 284 288 281 286 283 278 281 286 290 289 285 284 290 295 296 295 295 298 299 298 298 295 292 291 292 294 291 287 288 290 291 293 295 294 293 282 272 266 282 301 272 309 357 332 325 320 317 312 298 293 296 299 311 314 125 112 99 118 134 135 134 132 124 118 116 113 115 118 120 120 120 111 101 100 105 113 117 115 118 124 127 132 134 123 120
336 308 318 282 291 284 282 286 283 276 278 283 290 294 289 291 295 300 299 298 299 299 297 296 297 296 293 293 292 294 297 301 306 306 301 297 304 299 296 352 311 313 300 313 317 320 315 318 309 299 288 297 307 306 310 336 93 87 87 101 104 105 112 118 120 120 120 126 121 118 112 110 109 113 112 110 109 109 110 117 123 127 131 140 139 143 137
315 317 297 312 318 300 305 295 291 282 275 273 287 295 300 303 302 302 300 300 299 301 299 300 299 296 297 296 297 298 301 304 307 311 314 315 314 315 318 273 347 324 322 323 320 313 321 310 307 304 299 304 311 310 328 1 69 95 94 100 109 105 108 115 120 122 124 121 117 113 111 112 109 111 113 116 114 115 118 119 120 124 127 128 130 131 127
286 303 304 310 302 308 299 298 299 292 290 290 286 285 291 296 296 302 301 303 303 302 298 296 297 295 297 299 299 294 297 301 316 321 323 311 296 283 285 290 1 333 324 322 319 330 346 347 330 314 312 321 314 333 3 36 40 37 61 102 119 123 126 123 124 127 133 130 128 126 125 123 118 114 115 112 113 113 115 117 120 127 134 139 136 130 122
271 284 292 295 294 293 295 292 290 300 300 292 290 293 291 289 289 290 296 298 300 302 302 301 299 301 304 306 305 302 297 305 320 336 354 8 341 322 310 295 352 322 334 337 346 2 347 340 331 332 329 343 340 20 59 74 56 50 54 64 90 101 108 108 109 107 105 106 110 113 114 116 118 111 101 108 113 116 115 112 110 112 116 124 131 139 137
285 286 297 298 293 295 297 300 303 296 299 301 295 293 295 295 292 297 298 302 305 309 310 309 314 313 312 312 313 315 324 338 330 323 347 11 18 6 345 318 332 337 353 357 4 19 2 343 344 346 349 8 44 59 76 72 65 67 57 69 82 79 82 89 95 101 104 104 91 102 109 113 109 111 119 116 113 111 112 114 120 125 128 133 137 142 151
307 296 288 288 292 290 297 300 299 303 303 302 310 311 310 308 304 309 316 315 317 316 319 322 324 324 322 320 320 321 330 332 335 325 316 312 352 15 16 339 344 351 4 1 6 21 20 357 351 11 34 42 46 64 65 74 78 75 74 74 87 93 95 96 91 94 95 97 98 101 104 104 109 113 116 117 116 112 116 122 132 135 139 134 137 138 136
308 301 291 287 291 314 314 306 302 302 298 298 315 324 330 336 327 318 320 326 326 328 330 329 330 330 329 330 320 312 329 331 329 333 335 339 357 355 2 340 351 354 355 358 11 24 29 12 2 19 54 59 56 47 56 66 74 75 75 72 81 90 91 90 92 90 89 89 90 95 97 101 109 111 111 113 119 111 121 131 127 130 128 135 139 144 148
323 318 308 352 352 332 298 287 283 303 329 343 337 333 341 345 340 337 334 334 338 338 342 338 334 331 335 330 329 325 309 2 355 6 10 8 15 344 352 359 355 4 9 10 24 18 28 15 18 24 42 59 66 59 50 51 63 73 77 77 85 86 87 87 87 87 86 89 92 91 94 94 87 74 81 91 110 115 114 117 124 135 147 156 157 153 152
306 346 4 21 347 336 336 333 337 13 17 12 7 343 335 337 342 342 338 336 340 343 350 346 348 341 345 345 339 337 337 351 13 25 13 357 9 6 11 7 6 8 10 14 16 25 32 20 17 25 37 49 60 64 61 56 56 65 69 71 65 72 76 81 79 76 84 85 89 88 86 82 85 96 102 101 107 115 127 128 136 147 152 144 144 141 135
34 28 11 28 14 354 7 19 32 27 15 4 333 318 323 330 338 341 342 346 344 349 355 354 356 351 352 356 351 343 346 342 353 9 15 349 3 20 21 31 19 16 15 18 25 31 24 17 14 15 27 40 46 48 48 48 49 56 63 65 66 63 65 68 68 74 78 84 87 91 87 87 85 84 95 110 119 127 136 137 146 144 141 136 143 147 151
55 56 23 36 31 28 28 26 25 19 2 340 345 332 334 337 334 346 353 348 343 342 353 352 356 357 354 352 3 2 3 11 25 11 1 3 2 358 350 3 9 11 9 15 18 22 15 12 13 12 17 26 33 35 40 45 46 45 49 54 52 55 57 60 61 68 71 75 82 87 92 98 102 102 107 104 109 113 116 114 121 120 131 133 133 152 173
39 55 34 22 30 34 29 24 19 0 334 343 349 335 336 342 1 357 354 348 342 332 338 351 0 358 359 359 1 4 5 4 1 5 4 9 11 11 9 7 10 19 21 20 20 22 13 8 8 13 15 19 21 26 34 37 39 41 52 50 48 53 58 55 46 49 42 49 49 52 64 79 88 93 99 97 96 94 100 120 137 157 173 178 191 209 207
48 53 32 10 19 30 50 49 15 347 343 337 337 337 349 3 352 345 347 350 346 352 352 343 4 8 1 1 4 2 1 0 356 7 8 6 12 18 19 16 14 16 16 22 26 24 14 7 5 5 9 16 23 25 27 30 39 42 40 43 43 53 50 49 51 52 44 50 57 73 76 77 85 95 97 112 115 121 143 162 176 208 215 219 225 226 231
96 95 53 28 22 4 6 15 14 6 356 342 336 348 356 351 350 337 343 1 3 348 344 346 354 6 4 347 356 349 354 358 359 4 8 10 9 5 12 19 18 11 10 16 21 19 17 7 4 11 13 12 14 17 27 38 41 43 42 36 42 42 39 39 43 52 54 65 75 66 60 64 92 89 37 123 197 202 241 241 240 236 236 238 235 238 244